Date_Time,Julian_Date,Latitude,Longitude,Instrument_Depth,U,V,Speed,Direction
(yyyy-mm-dd hh:mn:ss UTC),(JD),(+ deg. North),(+ deg. East),(m),(cm/s),(cm/s),(cm/s),(deg True)
1982-07-12 20:00:00 UTC,2445163.333333,28.7317,-95.2428,0109,8.18,10.10,13.0000,39.0000
1982-07-12 20:30:00 UTC,2445163.354167,28.7317,-95.2428,0109,8.18,10.10,13.0000,39.0000
1982-07-12 21:00:00 UTC,2445163.375000,28.7317,-95.2428,0109,7.87,9.06,12.0000,41.0000
1982-07-12 21:30:00 UTC,2445163.395833,28.7317,-95.2428,0109,7.87,9.06,12.0000,41.0000
1982-07-12 22:00:00 UTC,2445163.416667,28.7317,-95.2428,0109,7.55,9.33,12.0000,39.0000
1982-07-12 22:30:00 UTC,2445163.437500,28.7317,-95.2428,0109,7.22,9.58,12.0000,37.0000
1982-07-12 23:00:00 UTC,2445163.458333,28.7317,-95.2428,0109,6.88,9.83,12.0000,35.0000
1982-07-12 23:30:00 UTC,2445163.479167,28.7317,-95.2428,0109,7.08,10.90,13.0000,33.0000
1982-07-13 00:00:00 UTC,2445163.500000,28.7317,-95.2428,0109,6.71,9.95,12.0000,34.0000
1982-07-13 00:30:00 UTC,2445163.520833,28.7317,-95.2428,0109,5.74,8.19,10.0000,35.0000
1982-07-13 01:00:00 UTC,2445163.541667,28.7317,-95.2428,0109,5.16,7.37,9.0000,35.0000
1982-07-13 01:30:00 UTC,2445163.562500,28.7317,-95.2428,0109,4.81,6.39,8.0000,37.0000
1982-07-13 02:00:00 UTC,2445163.583333,28.7317,-95.2428,0109,4.77,5.12,7.0000,43.0000
1982-07-13 02:30:00 UTC,2445163.604167,28.7317,-95.2428,0109,5.20,4.68,7.0000,48.0000
1982-07-13 03:00:00 UTC,2445163.625000,28.7317,-95.2428,0109,3.72,3.35,5.0000,48.0000
1982-07-13 03:30:00 UTC,2445163.645833,28.7317,-95.2428,0109,2.12,2.12,3.0000,45.0000
1982-07-13 04:00:00 UTC,2445163.666667,28.7317,-95.2428,0109,0.63,0.78,1.0000,39.0000
1982-07-13 04:30:00 UTC,2445163.687500,28.7317,-95.2428,0109,0.00,0.00,0.0000,19.0000
1982-07-13 05:00:00 UTC,2445163.708333,28.7317,-95.2428,0109,-0.00,0.00,0.0000,334.0000
1982-07-13 05:30:00 UTC,2445163.729167,28.7317,-95.2428,0109,-0.00,0.00,0.0000,290.0000
1982-07-13 06:00:00 UTC,2445163.750000,28.7317,-95.2428,0109,-0.26,0.97,1.0000,345.0000
1982-07-13 06:30:00 UTC,2445163.770833,28.7317,-95.2428,0109,-0.52,2.95,3.0000,350.0000
1982-07-13 07:00:00 UTC,2445163.791667,28.7317,-95.2428,0109,-0.84,5.94,6.0000,352.0000
1982-07-13 07:30:00 UTC,2445163.812500,28.7317,-95.2428,0109,-0.49,6.98,7.0000,356.0000
1982-07-13 08:00:00 UTC,2445163.833333,28.7317,-95.2428,0109,-0.14,8.00,8.0000,359.0000
1982-07-13 08:30:00 UTC,2445163.854167,28.7317,-95.2428,0109,-0.16,9.00,9.0000,359.0000
1982-07-13 09:00:00 UTC,2445163.875000,28.7317,-95.2428,0109,-0.58,10.98,11.0000,357.0000
1982-07-13 09:30:00 UTC,2445163.895833,28.7317,-95.2428,0109,-0.84,11.97,12.0000,356.0000
1982-07-13 10:00:00 UTC,2445163.916667,28.7317,-95.2428,0109,0.00,12.00,12.0000,0.0000
1982-07-13 10:30:00 UTC,2445163.937500,28.7317,-95.2428,0109,1.34,10.92,11.0000,7.0000
1982-07-13 11:00:00 UTC,2445163.958333,28.7317,-95.2428,0109,2.49,11.74,12.0000,12.0000
1982-07-13 11:30:00 UTC,2445163.979167,28.7317,-95.2428,0109,2.70,11.69,12.0000,13.0000
1982-07-13 12:00:00 UTC,2445164.000000,28.7317,-95.2428,0109,2.70,12.72,13.0000,12.0000
1982-07-13 12:30:00 UTC,2445164.020833,28.7317,-95.2428,0109,2.29,11.78,12.0000,11.0000
1982-07-13 13:00:00 UTC,2445164.041667,28.7317,-95.2428,0109,2.29,10.76,11.0000,12.0000
1982-07-13 13:30:00 UTC,2445164.062500,28.7317,-95.2428,0109,1.87,8.80,9.0000,12.0000
1982-07-13 14:00:00 UTC,2445164.083333,28.7317,-95.2428,0109,1.11,7.92,8.0000,8.0000
1982-07-13 14:30:00 UTC,2445164.104167,28.7317,-95.2428,0109,0.00,7.00,7.0000,0.0000
1982-07-13 15:00:00 UTC,2445164.125000,28.7317,-95.2428,0109,-0.31,5.99,6.0000,357.0000
1982-07-13 15:30:00 UTC,2445164.145833,28.7317,-95.2428,0109,-0.07,4.00,4.0000,359.0000
1982-07-13 16:00:00 UTC,2445164.166667,28.7317,-95.2428,0109,-0.35,1.97,2.0000,350.0000
1982-07-13 16:30:00 UTC,2445164.187500,28.7317,-95.2428,0109,-1.68,2.49,3.0000,326.0000
1982-07-13 17:00:00 UTC,2445164.208333,28.7317,-95.2428,0109,-2.57,3.06,4.0000,320.0000
1982-07-13 17:30:00 UTC,2445164.229167,28.7317,-95.2428,0109,-1.81,2.40,3.0000,323.0000
1982-07-13 18:00:00 UTC,2445164.250000,28.7317,-95.2428,0109,-1.20,1.60,2.0000,323.0000
1982-07-13 18:30:00 UTC,2445164.270833,28.7317,-95.2428,0109,-1.51,1.31,2.0000,311.0000
1982-07-13 19:00:00 UTC,2445164.291667,28.7317,-95.2428,0109,-1.66,1.12,2.0000,304.0000
1982-07-13 19:30:00 UTC,2445164.312500,28.7317,-95.2428,0109,-2.49,1.68,3.0000,304.0000
1982-07-13 20:00:00 UTC,2445164.333333,28.7317,-95.2428,0109,-2.52,1.63,3.0000,303.0000
1982-07-13 20:30:00 UTC,2445164.354167,28.7317,-95.2428,0109,-0.87,0.48,1.0000,299.0000
1982-07-13 21:00:00 UTC,2445164.375000,28.7317,-95.2428,0109,-0.00,0.00,0.0000,291.0000
1982-07-13 21:30:00 UTC,2445164.395833,28.7317,-95.2428,0109,-0.00,0.00,0.0000,296.0000
1982-07-13 22:00:00 UTC,2445164.416667,28.7317,-95.2428,0109,-0.99,0.10,1.0000,276.0000
1982-07-13 22:30:00 UTC,2445164.437500,28.7317,-95.2428,0109,-2.00,-0.00,2.0000,270.0000
1982-07-13 23:00:00 UTC,2445164.458333,28.7317,-95.2428,0109,-2.99,-0.21,3.0000,266.0000
1982-07-13 23:30:00 UTC,2445164.479167,28.7317,-95.2428,0109,-3.99,0.21,4.0000,273.0000
1982-07-14 00:00:00 UTC,2445164.500000,28.7317,-95.2428,0109,-5.82,1.45,6.0000,284.0000
1982-07-14 00:30:00 UTC,2445164.520833,28.7317,-95.2428,0109,-7.36,3.13,8.0000,293.0000
1982-07-14 01:00:00 UTC,2445164.541667,28.7317,-95.2428,0109,-7.19,3.51,8.0000,296.0000
1982-07-14 01:30:00 UTC,2445164.562500,28.7317,-95.2428,0109,-8.22,3.66,9.0000,294.0000
1982-07-14 02:00:00 UTC,2445164.583333,28.7317,-95.2428,0109,-8.40,3.23,9.0000,291.0000
1982-07-14 02:30:00 UTC,2445164.604167,28.7317,-95.2428,0109,-9.34,3.58,10.0000,291.0000
1982-07-14 03:00:00 UTC,2445164.625000,28.7317,-95.2428,0109,-9.46,3.26,10.0000,289.0000
1982-07-14 03:30:00 UTC,2445164.645833,28.7317,-95.2428,0109,-9.61,2.76,10.0000,286.0000
1982-07-14 04:00:00 UTC,2445164.666667,28.7317,-95.2428,0109,-8.77,2.02,9.0000,283.0000
1982-07-14 04:30:00 UTC,2445164.687500,28.7317,-95.2428,0109,-7.94,0.97,8.0000,277.0000
1982-07-14 05:00:00 UTC,2445164.708333,28.7317,-95.2428,0109,-8.99,0.31,9.0000,272.0000
1982-07-14 05:30:00 UTC,2445164.729167,28.7317,-95.2428,0109,-8.97,0.78,9.0000,275.0000
1982-07-14 06:00:00 UTC,2445164.750000,28.7317,-95.2428,0109,-8.61,2.63,9.0000,287.0000
1982-07-14 06:30:00 UTC,2445164.770833,28.7317,-95.2428,0109,-6.86,4.12,8.0000,301.0000
1982-07-14 07:00:00 UTC,2445164.791667,28.7317,-95.2428,0109,-5.73,4.02,7.0000,305.0000
1982-07-14 07:30:00 UTC,2445164.812500,28.7317,-95.2428,0109,-5.80,3.91,7.0000,304.0000
1982-07-14 08:00:00 UTC,2445164.833333,28.7317,-95.2428,0109,-5.66,5.66,8.0000,315.0000
1982-07-14 08:30:00 UTC,2445164.854167,28.7317,-95.2428,0109,-4.02,5.73,7.0000,325.0000
1982-07-14 09:00:00 UTC,2445164.875000,28.7317,-95.2428,0109,-3.36,4.97,6.0000,326.0000
1982-07-14 09:30:00 UTC,2445164.895833,28.7317,-95.2428,0109,-2.94,4.05,5.0000,324.0000
1982-07-14 10:00:00 UTC,2445164.916667,28.7317,-95.2428,0109,-2.65,4.24,5.0000,328.0000
1982-07-14 10:30:00 UTC,2445164.937500,28.7317,-95.2428,0109,-2.50,4.33,5.0000,330.0000
1982-07-14 11:00:00 UTC,2445164.958333,28.7317,-95.2428,0109,-2.72,4.19,5.0000,327.0000
1982-07-14 11:30:00 UTC,2445164.979167,28.7317,-95.2428,0109,-3.15,3.89,5.0000,321.0000
1982-07-14 12:00:00 UTC,2445165.000000,28.7317,-95.2428,0109,-3.21,3.83,5.0000,320.0000
1982-07-14 12:30:00 UTC,2445165.020833,28.7317,-95.2428,0109,-3.61,4.79,6.0000,323.0000
1982-07-14 13:00:00 UTC,2445165.041667,28.7317,-95.2428,0109,-3.27,5.03,6.0000,327.0000
1982-07-14 13:30:00 UTC,2445165.062500,28.7317,-95.2428,0109,-2.58,4.29,5.0000,329.0000
1982-07-14 14:00:00 UTC,2445165.083333,28.7317,-95.2428,0109,-1.06,1.70,2.0000,328.0000
1982-07-14 14:30:00 UTC,2445165.104167,28.7317,-95.2428,0109,-0.62,0.79,1.0000,322.0000
1982-07-14 15:00:00 UTC,2445165.125000,28.7317,-95.2428,0109,-0.00,0.00,0.0000,310.0000
1982-07-14 15:30:00 UTC,2445165.145833,28.7317,-95.2428,0109,-0.00,0.00,0.0000,351.0000
1982-07-14 16:00:00 UTC,2445165.166667,28.7317,-95.2428,0109,-0.00,-0.00,0.0000,256.0000
1982-07-14 16:30:00 UTC,2445165.187500,28.7317,-95.2428,0109,-0.93,-0.36,1.0000,249.0000
1982-07-14 17:00:00 UTC,2445165.208333,28.7317,-95.2428,0109,-2.70,-1.32,3.0000,244.0000
1982-07-14 17:30:00 UTC,2445165.229167,28.7317,-95.2428,0109,-3.43,-2.06,4.0000,239.0000
1982-07-14 18:00:00 UTC,2445165.250000,28.7317,-95.2428,0109,-3.28,-2.29,4.0000,235.0000
1982-07-14 18:30:00 UTC,2445165.270833,28.7317,-95.2428,0109,-3.99,-3.01,5.0000,233.0000
1982-07-14 19:00:00 UTC,2445165.291667,28.7317,-95.2428,0109,-5.59,-4.21,7.0000,233.0000
1982-07-14 19:30:00 UTC,2445165.312500,28.7317,-95.2428,0109,-7.46,-5.03,9.0000,236.0000
1982-07-14 20:00:00 UTC,2445165.333333,28.7317,-95.2428,0109,-9.33,-5.83,11.0000,238.0000
1982-07-14 20:30:00 UTC,2445165.354167,28.7317,-95.2428,0109,-10.39,-6.00,12.0000,240.0000
1982-07-14 21:00:00 UTC,2445165.375000,28.7317,-95.2428,0109,-10.39,-6.00,12.0000,240.0000
1982-07-14 21:30:00 UTC,2445165.395833,28.7317,-95.2428,0109,-9.23,-5.99,11.0000,237.0000
1982-07-14 22:00:00 UTC,2445165.416667,28.7317,-95.2428,0109,-8.09,-5.88,10.0000,234.0000
1982-07-14 22:30:00 UTC,2445165.437500,28.7317,-95.2428,0109,-7.99,-6.02,10.0000,233.0000
1982-07-14 23:00:00 UTC,2445165.458333,28.7317,-95.2428,0109,-10.06,-6.54,12.0000,237.0000
1982-07-14 23:30:00 UTC,2445165.479167,28.7317,-95.2428,0109,-10.60,-5.63,12.0000,242.0000
1982-07-15 00:00:00 UTC,2445165.500000,28.7317,-95.2428,0109,-10.79,-5.26,12.0000,244.0000
1982-07-15 00:30:00 UTC,2445165.520833,28.7317,-95.2428,0109,-10.79,-5.26,12.0000,244.0000
1982-07-15 01:00:00 UTC,2445165.541667,28.7317,-95.2428,0109,-10.88,-5.07,12.0000,245.0000
1982-07-15 01:30:00 UTC,2445165.562500,28.7317,-95.2428,0109,-10.40,-3.58,11.0000,251.0000
1982-07-15 02:00:00 UTC,2445165.583333,28.7317,-95.2428,0109,-9.82,-1.91,10.0000,259.0000
1982-07-15 02:30:00 UTC,2445165.604167,28.7317,-95.2428,0109,-8.99,-0.47,9.0000,267.0000
1982-07-15 03:00:00 UTC,2445165.625000,28.7317,-95.2428,0109,-8.98,0.63,9.0000,274.0000
1982-07-15 03:30:00 UTC,2445165.645833,28.7317,-95.2428,0109,-8.83,1.72,9.0000,281.0000
1982-07-15 04:00:00 UTC,2445165.666667,28.7317,-95.2428,0109,-8.40,3.23,9.0000,291.0000
1982-07-15 04:30:00 UTC,2445165.687500,28.7317,-95.2428,0109,-6.86,4.12,8.0000,301.0000
1982-07-15 05:00:00 UTC,2445165.708333,28.7317,-95.2428,0109,-6.78,4.24,8.0000,302.0000
1982-07-15 05:30:00 UTC,2445165.729167,28.7317,-95.2428,0109,-7.19,3.51,8.0000,296.0000
1982-07-15 06:00:00 UTC,2445165.750000,28.7317,-95.2428,0109,-8.46,3.08,9.0000,290.0000
1982-07-15 06:30:00 UTC,2445165.770833,28.7317,-95.2428,0109,-9.56,2.92,10.0000,287.0000
1982-07-15 07:00:00 UTC,2445165.791667,28.7317,-95.2428,0109,-9.74,2.25,10.0000,283.0000
1982-07-15 07:30:00 UTC,2445165.812500,28.7317,-95.2428,0109,-9.90,1.39,10.0000,278.0000
1982-07-15 08:00:00 UTC,2445165.833333,28.7317,-95.2428,0109,-9.99,0.35,10.0000,272.0000
1982-07-15 08:30:00 UTC,2445165.854167,28.7317,-95.2428,0109,-10.00,-0.00,10.0000,270.0000
1982-07-15 09:00:00 UTC,2445165.875000,28.7317,-95.2428,0109,-9.99,0.52,10.0000,273.0000
1982-07-15 09:30:00 UTC,2445165.895833,28.7317,-95.2428,0109,-10.94,1.15,11.0000,276.0000
1982-07-15 10:00:00 UTC,2445165.916667,28.7317,-95.2428,0109,-10.92,1.34,11.0000,277.0000
1982-07-15 10:30:00 UTC,2445165.937500,28.7317,-95.2428,0109,-9.96,0.87,10.0000,275.0000
1982-07-15 11:00:00 UTC,2445165.958333,28.7317,-95.2428,0109,-8.98,0.63,9.0000,274.0000
1982-07-15 11:30:00 UTC,2445165.979167,28.7317,-95.2428,0109,-7.98,0.56,8.0000,274.0000
1982-07-15 12:00:00 UTC,2445166.000000,28.7317,-95.2428,0109,-6.91,1.10,7.0000,279.0000
1982-07-15 12:30:00 UTC,2445166.020833,28.7317,-95.2428,0109,-4.78,1.46,5.0000,287.0000
1982-07-15 13:00:00 UTC,2445166.041667,28.7317,-95.2428,0109,-3.65,1.63,4.0000,294.0000
1982-07-15 13:30:00 UTC,2445166.062500,28.7317,-95.2428,0109,-2.57,1.55,3.0000,301.0000
1982-07-15 14:00:00 UTC,2445166.083333,28.7317,-95.2428,0109,-3.11,2.52,4.0000,309.0000
1982-07-15 14:30:00 UTC,2445166.104167,28.7317,-95.2428,0109,-2.16,2.08,3.0000,314.0000
1982-07-15 15:00:00 UTC,2445166.125000,28.7317,-95.2428,0109,-1.44,1.39,2.0000,314.0000
1982-07-15 15:30:00 UTC,2445166.145833,28.7317,-95.2428,0109,-0.78,0.63,1.0000,309.0000
1982-07-15 16:00:00 UTC,2445166.166667,28.7317,-95.2428,0109,-0.00,0.00,0.0000,294.0000
1982-07-15 16:30:00 UTC,2445166.187500,28.7317,-95.2428,0109,-0.00,0.00,0.0000,278.0000
1982-07-15 17:00:00 UTC,2445166.208333,28.7317,-95.2428,0109,-0.95,-0.33,1.0000,251.0000
1982-07-15 17:30:00 UTC,2445166.229167,28.7317,-95.2428,0109,-2.60,-1.50,3.0000,240.0000
1982-07-15 18:00:00 UTC,2445166.250000,28.7317,-95.2428,0109,-4.29,-2.58,5.0000,239.0000
1982-07-15 18:30:00 UTC,2445166.270833,28.7317,-95.2428,0109,-6.93,-4.00,8.0000,240.0000
1982-07-15 19:00:00 UTC,2445166.291667,28.7317,-95.2428,0109,-8.66,-5.00,10.0000,240.0000
1982-07-15 19:30:00 UTC,2445166.312500,28.7317,-95.2428,0109,-9.33,-5.83,11.0000,238.0000
1982-07-15 20:00:00 UTC,2445166.333333,28.7317,-95.2428,0109,-9.01,-6.31,11.0000,235.0000
1982-07-15 20:30:00 UTC,2445166.354167,28.7317,-95.2428,0109,-8.90,-6.47,11.0000,234.0000
1982-07-15 21:00:00 UTC,2445166.375000,28.7317,-95.2428,0109,-9.23,-5.99,11.0000,237.0000
1982-07-15 21:30:00 UTC,2445166.395833,28.7317,-95.2428,0109,-10.60,-5.63,12.0000,242.0000
1982-07-15 22:00:00 UTC,2445166.416667,28.7317,-95.2428,0109,-11.78,-5.49,13.0000,245.0000
1982-07-15 22:30:00 UTC,2445166.437500,28.7317,-95.2428,0109,-11.78,-5.49,13.0000,245.0000
1982-07-15 23:00:00 UTC,2445166.458333,28.7317,-95.2428,0109,-11.05,-4.69,12.0000,247.0000
1982-07-15 23:30:00 UTC,2445166.479167,28.7317,-95.2428,0109,-10.40,-3.58,11.0000,251.0000
1982-07-16 00:00:00 UTC,2445166.500000,28.7317,-95.2428,0109,-10.67,-2.66,11.0000,256.0000
1982-07-16 00:30:00 UTC,2445166.520833,28.7317,-95.2428,0109,-10.83,-1.91,11.0000,260.0000
1982-07-16 01:00:00 UTC,2445166.541667,28.7317,-95.2428,0109,-8.91,-1.25,9.0000,262.0000
1982-07-16 01:30:00 UTC,2445166.562500,28.7317,-95.2428,0109,-7.94,-0.97,8.0000,263.0000
1982-07-16 02:00:00 UTC,2445166.583333,28.7317,-95.2428,0109,-7.96,-0.84,8.0000,264.0000
1982-07-16 02:30:00 UTC,2445166.604167,28.7317,-95.2428,0109,-7.97,-0.70,8.0000,265.0000
1982-07-16 03:00:00 UTC,2445166.625000,28.7317,-95.2428,0109,-8.99,-0.31,9.0000,268.0000
1982-07-16 03:30:00 UTC,2445166.645833,28.7317,-95.2428,0109,-7.98,0.56,8.0000,274.0000
1982-07-16 04:00:00 UTC,2445166.666667,28.7317,-95.2428,0109,-6.98,0.49,7.0000,274.0000
1982-07-16 04:30:00 UTC,2445166.687500,28.7317,-95.2428,0109,-5.99,0.42,6.0000,274.0000
1982-07-16 05:00:00 UTC,2445166.708333,28.7317,-95.2428,0109,-5.96,0.73,6.0000,277.0000
1982-07-16 05:30:00 UTC,2445166.729167,28.7317,-95.2428,0109,-6.97,0.61,7.0000,275.0000
1982-07-16 06:00:00 UTC,2445166.750000,28.7317,-95.2428,0109,-7.00,0.12,7.0000,271.0000
1982-07-16 06:30:00 UTC,2445166.770833,28.7317,-95.2428,0109,-6.99,-0.37,7.0000,267.0000
1982-07-16 07:00:00 UTC,2445166.791667,28.7317,-95.2428,0109,-5.94,-0.84,6.0000,262.0000
1982-07-16 07:30:00 UTC,2445166.812500,28.7317,-95.2428,0109,-5.94,-0.84,6.0000,262.0000
1982-07-16 08:00:00 UTC,2445166.833333,28.7317,-95.2428,0109,-6.97,-0.61,7.0000,265.0000
1982-07-16 08:30:00 UTC,2445166.854167,28.7317,-95.2428,0109,-6.95,-0.85,7.0000,263.0000
1982-07-16 09:00:00 UTC,2445166.875000,28.7317,-95.2428,0109,-6.76,-1.81,7.0000,255.0000
1982-07-16 09:30:00 UTC,2445166.895833,28.7317,-95.2428,0109,-6.58,-2.39,7.0000,250.0000
1982-07-16 10:00:00 UTC,2445166.916667,28.7317,-95.2428,0109,-6.66,-2.16,7.0000,252.0000
1982-07-16 10:30:00 UTC,2445166.937500,28.7317,-95.2428,0109,-7.65,-2.34,8.0000,253.0000
1982-07-16 11:00:00 UTC,2445166.958333,28.7317,-95.2428,0109,-7.47,-2.87,8.0000,249.0000
1982-07-16 11:30:00 UTC,2445166.979167,28.7317,-95.2428,0109,-7.19,-3.51,8.0000,244.0000
1982-07-16 12:00:00 UTC,2445167.000000,28.7317,-95.2428,0109,-9.14,-4.07,10.0000,246.0000
1982-07-16 12:30:00 UTC,2445167.020833,28.7317,-95.2428,0109,-11.35,-3.91,12.0000,251.0000
1982-07-16 13:00:00 UTC,2445167.041667,28.7317,-95.2428,0109,-12.50,-3.58,13.0000,254.0000
1982-07-16 13:30:00 UTC,2445167.062500,28.7317,-95.2428,0109,-11.48,-3.51,12.0000,253.0000
1982-07-16 14:00:00 UTC,2445167.083333,28.7317,-95.2428,0109,-10.40,-3.58,11.0000,251.0000
1982-07-16 14:30:00 UTC,2445167.104167,28.7317,-95.2428,0109,-9.40,-3.42,10.0000,250.0000
1982-07-16 15:00:00 UTC,2445167.125000,28.7317,-95.2428,0109,-8.22,-3.66,9.0000,246.0000
1982-07-16 15:30:00 UTC,2445167.145833,28.7317,-95.2428,0109,-7.87,-4.36,9.0000,241.0000
1982-07-16 16:00:00 UTC,2445167.166667,28.7317,-95.2428,0109,-6.55,-4.59,8.0000,235.0000
1982-07-16 16:30:00 UTC,2445167.187500,28.7317,-95.2428,0109,-6.04,-5.25,8.0000,229.0000
1982-07-16 17:00:00 UTC,2445167.208333,28.7317,-95.2428,0109,-6.69,-7.43,10.0000,222.0000
1982-07-16 17:30:00 UTC,2445167.229167,28.7317,-95.2428,0109,-6.88,-9.83,12.0000,215.0000
1982-07-16 18:00:00 UTC,2445167.250000,28.7317,-95.2428,0109,-6.50,-11.26,13.0000,210.0000
1982-07-16 18:30:00 UTC,2445167.270833,28.7317,-95.2428,0109,-7.04,-13.24,15.0000,208.0000
1982-07-16 19:00:00 UTC,2445167.291667,28.7317,-95.2428,0109,-7.45,-15.28,17.0000,206.0000
1982-07-16 19:30:00 UTC,2445167.312500,28.7317,-95.2428,0109,-8.03,-17.22,19.0000,205.0000
1982-07-16 20:00:00 UTC,2445167.333333,28.7317,-95.2428,0109,-9.39,-17.66,20.0000,208.0000
1982-07-16 20:30:00 UTC,2445167.354167,28.7317,-95.2428,0109,-12.30,-18.24,22.0000,214.0000
1982-07-16 21:00:00 UTC,2445167.375000,28.7317,-95.2428,0109,-14.44,-19.17,24.0000,217.0000
1982-07-16 21:30:00 UTC,2445167.395833,28.7317,-95.2428,0109,-15.05,-19.97,25.0000,217.0000
1982-07-16 22:00:00 UTC,2445167.416667,28.7317,-95.2428,0109,-16.25,-21.56,27.0000,217.0000
1982-07-16 22:30:00 UTC,2445167.437500,28.7317,-95.2428,0109,-15.65,-20.76,26.0000,217.0000
1982-07-16 23:00:00 UTC,2445167.458333,28.7317,-95.2428,0109,-14.78,-18.91,24.0000,218.0000
1982-07-16 23:30:00 UTC,2445167.479167,28.7317,-95.2428,0109,-11.47,-16.38,20.0000,215.0000
1982-07-17 00:00:00 UTC,2445167.500000,28.7317,-95.2428,0109,-9.27,-15.43,18.0000,211.0000
1982-07-17 00:30:00 UTC,2445167.520833,28.7317,-95.2428,0109,-7.73,-12.86,15.0000,211.0000
1982-07-17 01:00:00 UTC,2445167.541667,28.7317,-95.2428,0109,-5.83,-9.33,11.0000,212.0000
1982-07-17 01:30:00 UTC,2445167.562500,28.7317,-95.2428,0109,-3.76,-7.06,8.0000,208.0000
1982-07-17 02:00:00 UTC,2445167.583333,28.7317,-95.2428,0109,-2.15,-5.60,6.0000,201.0000
1982-07-17 02:30:00 UTC,2445167.604167,28.7317,-95.2428,0109,-1.37,-3.76,4.0000,200.0000
1982-07-17 03:00:00 UTC,2445167.625000,28.7317,-95.2428,0109,-0.75,-1.85,2.0000,202.0000
1982-07-17 03:30:00 UTC,2445167.645833,28.7317,-95.2428,0109,0.00,-0.00,0.0000,180.0000
1982-07-17 04:00:00 UTC,2445167.666667,28.7317,-95.2428,0109,0.00,-0.00,0.0000,148.0000
1982-07-17 04:30:00 UTC,2445167.687500,28.7317,-95.2428,0109,0.00,-0.00,0.0000,146.0000
1982-07-17 05:00:00 UTC,2445167.708333,28.7317,-95.2428,0109,0.00,-0.00,0.0000,121.0000
1982-07-17 05:30:00 UTC,2445167.729167,28.7317,-95.2428,0109,0.89,-0.45,1.0000,117.0000
1982-07-17 06:00:00 UTC,2445167.750000,28.7317,-95.2428,0109,3.60,-1.75,4.0000,116.0000
1982-07-17 06:30:00 UTC,2445167.770833,28.7317,-95.2428,0109,6.24,-3.18,7.0000,117.0000
1982-07-17 07:00:00 UTC,2445167.791667,28.7317,-95.2428,0109,8.02,-4.09,9.0000,117.0000
1982-07-17 07:30:00 UTC,2445167.812500,28.7317,-95.2428,0109,9.80,-4.99,11.0000,117.0000
1982-07-17 08:00:00 UTC,2445167.833333,28.7317,-95.2428,0109,10.60,-5.63,12.0000,118.0000
1982-07-17 08:30:00 UTC,2445167.854167,28.7317,-95.2428,0109,12.24,-6.79,14.0000,119.0000
1982-07-17 09:00:00 UTC,2445167.875000,28.7317,-95.2428,0109,11.14,-6.70,13.0000,121.0000
1982-07-17 09:30:00 UTC,2445167.895833,28.7317,-95.2428,0109,10.90,-7.08,13.0000,123.0000
1982-07-17 10:00:00 UTC,2445167.916667,28.7317,-95.2428,0109,11.74,-7.62,14.0000,123.0000
1982-07-17 10:30:00 UTC,2445167.937500,28.7317,-95.2428,0109,10.78,-7.27,13.0000,124.0000
1982-07-17 11:00:00 UTC,2445167.958333,28.7317,-95.2428,0109,8.30,-7.22,11.0000,131.0000
1982-07-17 11:30:00 UTC,2445167.979167,28.7317,-95.2428,0109,6.56,-7.55,10.0000,139.0000
1982-07-17 12:00:00 UTC,2445168.000000,28.7317,-95.2428,0109,6.16,-7.88,10.0000,142.0000
1982-07-17 12:30:00 UTC,2445168.020833,28.7317,-95.2428,0109,6.29,-7.77,10.0000,141.0000
1982-07-17 13:00:00 UTC,2445168.041667,28.7317,-95.2428,0109,6.16,-7.88,10.0000,142.0000
1982-07-17 13:30:00 UTC,2445168.062500,28.7317,-95.2428,0109,5.45,-8.39,10.0000,147.0000
1982-07-17 14:00:00 UTC,2445168.083333,28.7317,-95.2428,0109,4.09,-8.02,9.0000,153.0000
1982-07-17 14:30:00 UTC,2445168.104167,28.7317,-95.2428,0109,3.52,-8.28,9.0000,157.0000
1982-07-17 15:00:00 UTC,2445168.125000,28.7317,-95.2428,0109,2.48,-8.65,9.0000,164.0000
1982-07-17 15:30:00 UTC,2445168.145833,28.7317,-95.2428,0109,1.41,-8.89,9.0000,171.0000
1982-07-17 16:00:00 UTC,2445168.166667,28.7317,-95.2428,0109,0.63,-8.98,9.0000,176.0000
1982-07-17 16:30:00 UTC,2445168.187500,28.7317,-95.2428,0109,-0.17,-10.00,10.0000,181.0000
1982-07-17 17:00:00 UTC,2445168.208333,28.7317,-95.2428,0109,-1.15,-10.94,11.0000,186.0000
1982-07-17 17:30:00 UTC,2445168.229167,28.7317,-95.2428,0109,-2.48,-12.76,13.0000,191.0000
1982-07-17 18:00:00 UTC,2445168.250000,28.7317,-95.2428,0109,-3.86,-13.46,14.0000,196.0000
1982-07-17 18:30:00 UTC,2445168.270833,28.7317,-95.2428,0109,-5.62,-13.91,15.0000,202.0000
1982-07-17 19:00:00 UTC,2445168.291667,28.7317,-95.2428,0109,-7.89,-16.18,18.0000,206.0000
1982-07-17 19:30:00 UTC,2445168.312500,28.7317,-95.2428,0109,-9.39,-17.66,20.0000,208.0000
1982-07-17 20:00:00 UTC,2445168.333333,28.7317,-95.2428,0109,-10.50,-18.19,21.0000,210.0000
1982-07-17 20:30:00 UTC,2445168.354167,28.7317,-95.2428,0109,-12.19,-19.51,23.0000,212.0000
1982-07-17 21:00:00 UTC,2445168.375000,28.7317,-95.2428,0109,-13.77,-19.66,24.0000,215.0000
1982-07-17 21:30:00 UTC,2445168.395833,28.7317,-95.2428,0109,-16.01,-20.49,26.0000,218.0000
1982-07-17 22:00:00 UTC,2445168.416667,28.7317,-95.2428,0109,-17.71,-20.38,27.0000,221.0000
1982-07-17 22:30:00 UTC,2445168.437500,28.7317,-95.2428,0109,-19.09,-19.09,27.0000,225.0000
1982-07-17 23:00:00 UTC,2445168.458333,28.7317,-95.2428,0109,-19.32,-17.40,26.0000,228.0000
1982-07-17 23:30:00 UTC,2445168.479167,28.7317,-95.2428,0109,-19.43,-15.73,25.0000,231.0000
1982-07-18 00:00:00 UTC,2445168.500000,28.7317,-95.2428,0109,-19.17,-14.44,24.0000,233.0000
1982-07-18 00:30:00 UTC,2445168.520833,28.7317,-95.2428,0109,-20.35,-12.72,24.0000,238.0000
1982-07-18 01:00:00 UTC,2445168.541667,28.7317,-95.2428,0109,-20.67,-10.08,23.0000,244.0000
1982-07-18 01:30:00 UTC,2445168.562500,28.7317,-95.2428,0109,-19.47,-7.87,21.0000,248.0000
1982-07-18 02:00:00 UTC,2445168.583333,28.7317,-95.2428,0109,-19.02,-6.18,20.0000,252.0000
1982-07-18 02:30:00 UTC,2445168.604167,28.7317,-95.2428,0109,-17.54,-4.05,18.0000,257.0000
1982-07-18 03:00:00 UTC,2445168.625000,28.7317,-95.2428,0109,-14.94,-1.31,15.0000,265.0000
1982-07-18 03:30:00 UTC,2445168.645833,28.7317,-95.2428,0109,-11.95,1.05,12.0000,275.0000
1982-07-18 04:00:00 UTC,2445168.666667,28.7317,-95.2428,0109,-9.70,2.42,10.0000,284.0000
1982-07-18 04:30:00 UTC,2445168.687500,28.7317,-95.2428,0109,-9.46,3.26,10.0000,289.0000
1982-07-18 05:00:00 UTC,2445168.708333,28.7317,-95.2428,0109,-8.28,3.52,9.0000,293.0000
1982-07-18 05:30:00 UTC,2445168.729167,28.7317,-95.2428,0109,-8.22,3.66,9.0000,294.0000
1982-07-18 06:00:00 UTC,2445168.750000,28.7317,-95.2428,0109,-6.39,2.85,7.0000,294.0000
1982-07-18 06:30:00 UTC,2445168.770833,28.7317,-95.2428,0109,-4.53,2.11,5.0000,295.0000
1982-07-18 07:00:00 UTC,2445168.791667,28.7317,-95.2428,0109,-2.70,1.32,3.0000,296.0000
1982-07-18 07:30:00 UTC,2445168.812500,28.7317,-95.2428,0109,-1.96,0.42,2.0000,282.0000
1982-07-18 08:00:00 UTC,2445168.833333,28.7317,-95.2428,0109,-2.98,-0.31,3.0000,264.0000
1982-07-18 08:30:00 UTC,2445168.854167,28.7317,-95.2428,0109,-3.76,-1.37,4.0000,250.0000
1982-07-18 09:00:00 UTC,2445168.875000,28.7317,-95.2428,0109,-3.43,-2.06,4.0000,239.0000